SL-16 DEB, 39717

Orbit data source: Space-Track

SL-16 DEB, 39717 is space debris in LEO originally from a launch on Fri, 25 Dec 1992 UTC launched from the Tyuratam Missile And Space Complex (TTMTR). Debris objects in space refer to the collection of defunct objects orbiting the Earth. Examples of debris include non-operational satellites, rocket bodies, and fragments generated from explosions, collisions, or faulty payload assembly.

Loading next visibility...
Identifier
39717, 1992-093KH
Orbit
LEO
Country
Flag of CISCIS
Related business
Manufacturer
Unknown
Mission
Spacecraft
Bus & Motor
Unknown
Mass
Unknown
Launch date (UTC)
1992-12-25 (33 years ago)
Launch vehicle
Unknown
Launch site
Tyuratam Missile And Space Complex (TTMTR)
Object type
Payload
Rocket body
Debris
Shape & HBR
Unknown shape, 0.1 m
Radar Cross Section
Small (<0.1 m²)

Expand to show TLE details & history
Last TLE update: 1 day ago

TLE from 1 day ago
0 SL-16 DEB
1 39717U 92093KH  26125.99307439  .00000469  00000-0  31776-3 0  9996
2 39717  70.6887 220.7089 0097689   4.7554 355.4464 14.03284834616547
Epoch: 2026-05-05T23:50Z
TLE epoch observation values (Epoch: 2026-05-05T23:50:01.627Z)
Latitude
-0.00002°
Longitude
-0.65784°
Altitude
814.1 km
Speed
7.483 km/s
True Right ascension
14h 42m 50s
True Declination
0° 00' 00"
Sunlit
Object was in full shadow at epoch
Visualization orbit readout
Latitude
Unknown
Longitude
Unknown
Altitude
Unknown
Speed
Unknown
Apparent Right ascension
Unknown
Apparent Declination
Unknown
Sunlit
N/A
Visualization observer readout
Local Sidereal Time
17:20:31
Azimuth
Unknown
Elevation
Unknown
Doppler factor
Unknown
Orbital elements
Apogee altitude
951.317 km
Perigee altitude
809.501 km
Semi-major axis
7,258.546 km
Eccentricity
0.00977
Inclination
70.6887°
RAAN
220.7089°
Arg. of periapsis
4.7554°
True anomaly
355.35643°
Mean anomaly
355.4464°
Eccentric anomaly
355.40153°
Mean motion
3.50969 °/min
Orbital period
102.57 mins
BSTAR
0.00031776
Loading maneuver chart data...
Computing Atmospheric mass density...
Loading historical data...
Loading historical data...
Loading historical data...
Loading historical data...
Loading historical data...
Loading historical data...
Loading historical data...

Documentation

Showing up to 5 results
|